contact:dominique.lefevre@mio.osupytheas.fr, maurice.libes@osupytheas.fr, didier.mallarino@osupytheas.fr
Project:EMSO http://www.emso-fr.org/EMSO-France
Depth: 2436.0 m
Title:EMSO Ligure Ouest : Data MII capteur MICROCAT
DateTime_Computer,Latitude,Longitude,Temperature,Conductivity,Pressure,DateTime_Instrument
DateTime_Computer,Latitude,Longitude,degC,S m-1,dbar,DateTime_Instrument
2020-04-05T00:02:53Z,42.805,6.029,13.3014,4.60040,2469.923,2020-4-05T02:03:32Z
2020-04-05T00:05:57Z,42.805,6.029,13.3029,4.60054,2469.923,2020-4-05T02:06:35Z
2020-04-05T00:09:00Z,42.805,6.029,13.3034,4.60059,2469.937,2020-4-05T02:09:39Z
2020-04-05T00:12:03Z,42.805,6.029,13.3059,4.60052,2469.9,2020-4-05T02:12:42Z
2020-04-05T00:15:06Z,42.805,6.029,13.3046,4.60082,2469.96,2020-4-05T02:15:45Z
2020-04-05T00:18:10Z,42.805,6.029,13.3034,4.60033,2469.9,2020-4-05T02:18:48Z
2020-04-05T00:21:13Z,42.805,6.029,13.3012,4.60037,2469.876,2020-4-05T02:21:52Z
2020-04-05T00:24:16Z,42.805,6.029,13.3029,4.60045,2469.914,2020-4-05T02:24:55Z
2020-04-05T00:27:19Z,42.805,6.029,13.2994,4.59992,2469.937,2020-4-05T02:27:58Z
2020-04-05T00:30:22Z,42.805,6.029,13.3009,4.60016,2469.914,2020-4-05T02:31:01Z
2020-04-05T00:33:26Z,42.805,6.029,13.3021,4.60009,2469.937,2020-4-05T02:34:04Z
2020-04-05T00:36:29Z,42.805,6.029,13.3042,4.60011,2469.923,2020-4-05T02:37:08Z
2020-04-05T00:39:32Z,42.805,6.029,13.2984,4.60032,2469.97,2020-4-05T02:40:11Z
2020-04-05T00:42:36Z,42.805,6.029,13.3000,4.60032,2469.937,2020-4-05T02:43:14Z
2020-04-05T00:45:39Z,42.805,6.029,13.3021,4.60035,2469.96,2020-4-05T02:46:18Z
2020-04-05T00:48:42Z,42.805,6.029,13.3032,4.60067,2469.923,2020-4-05T02:49:21Z
2020-04-05T00:51:45Z,42.805,6.029,13.3039,4.60021,2469.947,2020-4-05T02:52:24Z
2020-04-05T00:54:48Z,42.805,6.029,13.3043,4.60059,2469.9,2020-4-05T02:55:27Z
2020-04-05T00:57:52Z,42.805,6.029,13.3034,4.60006,2469.947,2020-4-05T02:58:31Z
2020-04-05T01:00:55Z,42.805,6.029,13.3022,4.60033,2469.923,2020-4-05T03:01:34Z
2020-04-05T01:03:58Z,42.805,6.029,13.3021,4.60005,2469.993,2020-4-05T03:04:37Z
2020-04-05T01:07:02Z,42.805,6.029,13.3021,4.60067,2469.984,2020-4-05T03:07:40Z
2020-04-05T01:10:05Z,42.805,6.029,13.3037,4.60049,2469.984,2020-4-05T03:10:44Z
2020-04-05T01:13:08Z,42.805,6.029,13.2995,4.60032,2469.947,2020-4-05T03:13:47Z
2020-04-05T01:16:11Z,42.805,6.029,13.3023,4.60035,2469.984,2020-4-05T03:16:50Z
2020-04-05T01:19:15Z,42.805,6.029,13.3034,4.60054,2469.923,2020-4-05T03:19:53Z
2020-04-05T01:22:18Z,42.805,6.029,13.3026,4.60019,2469.947,2020-4-05T03:22:57Z
2020-04-05T01:25:21Z,42.805,6.029,13.3022,4.59999,2469.97,2020-4-05T03:26:00Z
2020-04-05T01:28:24Z,42.805,6.029,13.3020,4.60046,2469.947,2020-4-05T03:29:03Z
2020-04-05T01:31:28Z,42.805,6.029,13.3021,4.60026,2470.007,2020-4-05T03:32:07Z
2020-04-05T01:34:31Z,42.805,6.029,13.3011,4.59997,2469.947,2020-4-05T03:35:10Z
2020-04-05T01:37:34Z,42.805,6.029,13.2999,4.60003,2469.997,2020-4-05T03:38:13Z
2020-04-05T01:40:38Z,42.805,6.029,13.3003,4.60005,2469.984,2020-4-05T03:41:16Z
2020-04-05T01:43:41Z,42.805,6.029,13.2993,4.60011,2469.993,2020-4-05T03:44:20Z
2020-04-05T01:46:44Z,42.805,6.029,13.3009,4.59998,2469.97,2020-4-05T03:47:23Z
2020-04-05T01:49:47Z,42.805,6.029,13.3002,4.59999,2469.993,2020-4-05T03:50:26Z
2020-04-05T01:52:51Z,42.805,6.029,13.3012,4.60021,2470.007,2020-4-05T03:53:29Z
2020-04-05T01:55:54Z,42.805,6.029,13.3010,4.60019,2469.993,2020-4-05T03:56:33Z
2020-04-05T01:58:57Z,42.805,6.029,13.3034,4.60016,2469.993,2020-4-05T03:59:36Z
2020-04-05T02:02:00Z,42.805,6.029,13.3029,4.60016,2469.993,2020-4-05T04:02:39Z
2020-04-05T02:05:04Z,42.805,6.029,13.3001,4.60029,2469.993,2020-4-05T04:05:43Z
2020-04-05T02:08:07Z,42.805,6.029,13.3021,4.60036,2469.97,2020-4-05T04:08:46Z
2020-04-05T02:11:10Z,42.805,6.029,13.3019,4.60043,2469.947,2020-4-05T04:11:49Z
2020-04-05T02:14:14Z,42.805,6.029,13.3020,4.60014,2469.97,2020-4-05T04:14:52Z
2020-04-05T02:17:17Z,42.805,6.029,13.3000,4.60024,2470.017,2020-4-05T04:17:56Z
2020-04-05T02:20:20Z,42.805,6.029,13.3007,4.60014,2470.007,2020-4-05T04:20:59Z
2020-04-05T02:23:23Z,42.805,6.029,13.3014,4.60021,2470.007,2020-4-05T04:24:02Z
2020-04-05T02:26:27Z,42.805,6.029,13.2999,4.60009,2470.007,2020-4-05T04:27:05Z
2020-04-05T02:29:30Z,42.805,6.029,13.3041,4.60009,2470.053,2020-4-05T04:30:09Z
2020-04-05T02:32:33Z,42.805,6.029,13.2990,4.60006,2470.017,2020-4-05T04:33:12Z
2020-04-05T02:35:36Z,42.805,6.029,13.3014,4.60009,2470.017,2020-4-05T04:36:15Z
2020-04-05T02:38:40Z,42.805,6.029,13.3008,4.60022,2470.03,2020-4-05T04:39:18Z
2020-04-05T02:41:43Z,42.805,6.029,13.3015,4.59986,2470.007,2020-4-05T04:42:22Z
2020-04-05T02:44:46Z,42.805,6.029,13.2983,4.60007,2470.017,2020-4-05T04:45:25Z
2020-04-05T02:47:49Z,42.805,6.029,13.3016,4.60012,2470.03,2020-4-05T04:48:28Z
2020-04-05T02:50:53Z,42.805,6.029,13.3006,4.60049,2470.03,2020-4-05T04:51:31Z
2020-04-05T02:53:56Z,42.805,6.029,13.3012,4.60010,2470.017,2020-4-05T04:54:35Z
2020-04-05T02:56:59Z,42.805,6.029,13.3003,4.60029,2470.04,2020-4-05T04:57:38Z
2020-04-05T03:00:02Z,42.805,6.029,13.3000,4.60004,2470.053,2020-4-05T05:00:41Z
2020-04-05T03:03:05Z,42.805,6.029,13.3031,4.59992,2470.053,2020-4-05T05:03:44Z
2020-04-05T03:06:09Z,42.805,6.029,13.3009,4.60019,2470.053,2020-4-05T05:06:48Z
2020-04-05T03:09:12Z,42.805,6.029,13.3015,4.60015,2470.017,2020-4-05T05:09:51Z
2020-04-05T03:12:15Z,42.805,6.029,13.3019,4.60036,2470.087,2020-4-05T05:12:54Z
2020-04-05T03:15:19Z,42.805,6.029,13.3004,4.60041,2470.04,2020-4-05T05:15:57Z
2020-04-05T03:18:22Z,42.805,6.029,13.2998,4.60043,2470.063,2020-4-05T05:19:01Z
2020-04-05T03:21:25Z,42.805,6.029,13.3037,4.60005,2470.04,2020-4-05T05:22:04Z
2020-04-05T03:24:28Z,42.805,6.029,13.3010,4.60013,2470.063,2020-4-05T05:25:07Z
2020-04-05T03:27:31Z,42.805,6.029,13.3029,4.60006,2470.077,2020-4-05T05:28:10Z
2020-04-05T03:30:35Z,42.805,6.029,13.3015,4.60011,2470.04,2020-4-05T05:31:13Z
2020-04-05T03:33:38Z,42.805,6.029,13.3012,4.60009,2470.087,2020-4-05T05:34:17Z
2020-04-05T03:36:41Z,42.805,6.029,13.3010,4.60006,2470.04,2020-4-05T05:37:20Z
2020-04-05T03:39:44Z,42.805,6.029,13.3010,4.60029,2470.077,2020-4-05T05:40:23Z
2020-04-05T03:42:48Z,42.805,6.029,13.3017,4.60040,2470.077,2020-4-05T05:43:26Z
2020-04-05T03:45:51Z,42.805,6.029,13.3023,4.60026,2470.1,2020-4-05T05:46:30Z
2020-04-05T03:48:54Z,42.805,6.029,13.3026,4.60010,2470.063,2020-4-05T05:49:33Z
2020-04-05T03:51:57Z,42.805,6.029,13.3024,4.60033,2470.11,2020-4-05T05:52:36Z
2020-04-05T03:55:00Z,42.805,6.029,13.3029,4.60017,2470.087,2020-4-05T05:55:39Z
2020-04-05T03:58:04Z,42.805,6.029,13.3018,4.60027,2470.077,2020-4-05T05:58:42Z
2020-04-05T04:01:07Z,42.805,6.029,13.3019,4.60001,2470.087,2020-4-05T06:01:46Z
2020-04-05T04:04:10Z,42.805,6.029,13.3058,4.60010,2470.1,2020-4-05T06:04:49Z
2020-04-05T04:07:13Z,42.805,6.029,13.3027,4.60009,2470.063,2020-4-05T06:07:52Z
2020-04-05T04:10:17Z,42.805,6.029,13.3015,4.60003,2470.124,2020-4-05T06:10:55Z
2020-04-05T04:13:20Z,42.805,6.029,13.3014,4.60002,2470.087,2020-4-05T06:13:59Z
2020-04-05T04:16:23Z,42.805,6.029,13.3014,4.59999,2470.077,2020-4-05T06:17:02Z
2020-04-05T04:19:26Z,42.805,6.029,13.3009,4.60011,2470.1,2020-4-05T06:20:05Z
2020-04-05T04:22:30Z,42.805,6.029,13.3003,4.60019,2470.087,2020-4-05T06:23:08Z
2020-04-05T04:25:33Z,42.805,6.029,13.3004,4.60016,2470.087,2020-4-05T06:26:12Z
2020-04-05T04:28:36Z,42.805,6.029,13.3009,4.60013,2470.087,2020-4-05T06:29:15Z
2020-04-05T04:31:39Z,42.805,6.029,13.3013,4.60014,2470.1,2020-4-05T06:32:18Z
2020-04-05T04:34:42Z,42.805,6.029,13.3011,4.60013,2470.087,2020-4-05T06:35:21Z
2020-04-05T04:37:46Z,42.805,6.029,13.3022,4.60010,2470.133,2020-4-05T06:38:25Z
2020-04-05T04:40:49Z,42.805,6.029,13.3014,4.60009,2470.1,2020-4-05T06:41:28Z
2020-04-05T04:43:52Z,42.805,6.029,13.3013,4.60003,2470.1,2020-4-05T06:44:31Z
2020-04-05T04:46:55Z,42.805,6.029,13.3005,4.60005,2470.11,2020-4-05T06:47:34Z
2020-04-05T04:49:59Z,42.805,6.029,13.3049,4.60014,2470.087,2020-4-05T06:50:37Z
2020-04-05T04:53:02Z,42.805,6.029,13.3039,4.59996,2470.1,2020-4-05T06:53:41Z
2020-04-05T04:56:05Z,42.805,6.029,13.3014,4.60012,2470.11,2020-4-05T06:56:44Z
2020-04-05T04:59:08Z,42.805,6.029,13.3031,4.60019,2470.1,2020-4-05T06:59:47Z
2020-04-05T05:02:12Z,42.805,6.029,13.3026,4.60031,2470.077,2020-4-05T07:02:50Z
2020-04-05T05:05:15Z,42.805,6.029,13.3058,4.60029,2470.133,2020-4-05T07:05:54Z
2020-04-05T05:08:18Z,42.805,6.029,13.3036,4.60020,2470.087,2020-4-05T07:08:57Z
2020-04-05T05:11:22Z,42.805,6.029,13.3022,4.60029,2470.1,2020-4-05T07:12:00Z
2020-04-05T05:14:25Z,42.805,6.029,13.3045,4.60019,2470.124,2020-4-05T07:15:04Z
2020-04-05T05:17:28Z,42.805,6.029,13.3033,4.60001,2470.1,2020-4-05T07:18:07Z
2020-04-05T05:20:31Z,42.805,6.029,13.3039,4.60011,2470.124,2020-4-05T07:21:10Z
2020-04-05T05:23:35Z,42.805,6.029,13.3051,4.60026,2470.124,2020-4-05T07:24:13Z
2020-04-05T05:26:38Z,42.805,6.029,13.3039,4.60000,2470.11,2020-4-05T07:27:17Z
2020-04-05T05:29:41Z,42.805,6.029,13.3048,4.60017,2470.124,2020-4-05T07:30:20Z
2020-04-05T05:32:44Z,42.805,6.029,13.3036,4.60008,2470.1,2020-4-05T07:33:23Z
2020-04-05T05:35:48Z,42.805,6.029,13.3028,4.60003,2470.133,2020-4-05T07:36:26Z
2020-04-05T05:38:51Z,42.805,6.029,13.3021,4.60047,2470.1,2020-4-05T07:39:30Z
2020-04-05T05:41:54Z,42.805,6.029,13.3026,4.60029,2470.124,2020-4-05T07:42:33Z
2020-04-05T05:44:57Z,42.805,6.029,13.3031,4.60013,2470.156,2020-4-05T07:45:36Z
2020-04-05T05:48:00Z,42.805,6.029,13.3036,4.60016,2470.11,2020-4-05T07:48:39Z
2020-04-05T05:51:04Z,42.805,6.029,13.3045,4.59999,2470.11,2020-4-05T07:51:42Z
2020-04-05T05:54:07Z,42.805,6.029,13.3036,4.60010,2470.124,2020-4-05T07:54:46Z
2020-04-05T05:57:10Z,42.805,6.029,13.3064,4.60005,2470.124,2020-4-05T07:57:49Z
2020-04-05T06:00:13Z,42.805,6.029,13.3051,4.59994,2470.147,2020-4-05T08:00:52Z
2020-04-05T06:03:17Z,42.805,6.029,13.3052,4.60001,2470.124,2020-4-05T08:03:55Z
2020-04-05T06:06:20Z,42.805,6.029,13.3048,4.59995,2470.11,2020-4-05T08:06:59Z
2020-04-05T06:09:23Z,42.805,6.029,13.3065,4.60008,2470.1,2020-4-05T08:10:02Z
2020-04-05T06:12:26Z,42.805,6.029,13.3059,4.60028,2470.124,2020-4-05T08:13:05Z
2020-04-05T06:15:30Z,42.805,6.029,13.3065,4.60026,2470.124,2020-4-05T08:16:08Z
2020-04-05T06:18:33Z,42.805,6.029,13.3053,4.60025,2470.124,2020-4-05T08:19:12Z
2020-04-05T06:21:36Z,42.805,6.029,13.3056,4.60041,2470.124,2020-4-05T08:22:15Z
2020-04-05T06:24:39Z,42.805,6.029,13.3044,4.60018,2470.133,2020-4-05T08:25:18Z
2020-04-05T06:27:43Z,42.805,6.029,13.3023,4.60011,2470.063,2020-4-05T08:28:21Z
2020-04-05T06:30:46Z,42.805,6.029,13.3035,4.60017,2470.124,2020-4-05T08:31:25Z
2020-04-05T06:33:49Z,42.805,6.029,13.3039,4.60019,2470.1,2020-4-05T08:34:28Z
2020-04-05T06:36:52Z,42.805,6.029,13.3041,4.60016,2470.1,2020-4-05T08:37:31Z
2020-04-05T06:39:55Z,42.805,6.029,13.3058,4.60031,2470.133,2020-4-05T08:40:34Z
2020-04-05T06:42:59Z,42.805,6.029,13.3060,4.60020,2470.124,2020-4-05T08:43:38Z
2020-04-05T06:46:02Z,42.805,6.029,13.3044,4.60011,2470.11,2020-4-05T08:46:41Z
2020-04-05T06:49:05Z,42.805,6.029,13.3042,4.60022,2470.124,2020-4-05T08:49:44Z
2020-04-05T06:52:09Z,42.805,6.029,13.3054,4.60034,2470.1,2020-4-05T08:52:47Z
2020-04-05T06:55:12Z,42.805,6.029,13.3049,4.60024,2470.147,2020-4-05T08:55:51Z
2020-04-05T06:58:15Z,42.805,6.029,13.3045,4.60006,2470.087,2020-4-05T08:58:54Z
2020-04-05T07:01:18Z,42.805,6.029,13.3054,4.60009,2470.087,2020-4-05T09:01:57Z
2020-04-05T07:04:22Z,42.805,6.029,13.3046,4.60003,2470.077,2020-4-05T09:05:00Z
2020-04-05T07:07:25Z,42.805,6.029,13.3042,4.60006,2470.087,2020-4-05T09:08:04Z
2020-04-05T07:10:28Z,42.805,6.029,13.3012,4.60021,2470.133,2020-4-05T09:11:07Z
2020-04-05T07:13:31Z,42.805,6.029,13.3000,4.60030,2470.1,2020-4-05T09:14:10Z
2020-04-05T07:16:35Z,42.805,6.029,13.3011,4.60026,2470.124,2020-4-05T09:17:14Z
2020-04-05T07:19:38Z,42.805,6.029,13.3015,4.60021,2470.1,2020-4-05T09:20:17Z
2020-04-05T07:22:41Z,42.805,6.029,13.3019,4.60032,2470.063,2020-4-05T09:23:20Z
2020-04-05T07:25:44Z,42.805,6.029,13.2979,4.60002,2470.063,2020-4-05T09:26:23Z
2020-04-05T07:28:48Z,42.805,6.029,13.2978,4.59991,2470.04,2020-4-05T09:29:26Z
2020-04-05T07:31:51Z,42.805,6.029,13.2990,4.59988,2470.063,2020-4-05T09:32:30Z
2020-04-05T07:34:54Z,42.805,6.029,13.2995,4.59991,2470.087,2020-4-05T09:35:33Z
2020-04-05T07:37:57Z,42.805,6.029,13.2983,4.59986,2470.1,2020-4-05T09:38:36Z
2020-04-05T07:41:01Z,42.805,6.029,13.3134,4.59988,2470.124,2020-4-05T09:41:39Z
2020-04-05T07:44:04Z,42.805,6.029,13.2990,4.59986,2470.063,2020-4-05T09:44:43Z
2020-04-05T07:47:07Z,42.805,6.029,13.2979,4.60045,2470.063,2020-4-05T09:47:46Z
2020-04-05T07:50:10Z,42.805,6.029,13.2976,4.60011,2470.077,2020-4-05T09:50:49Z
2020-04-05T07:53:13Z,42.805,6.029,13.2975,4.59996,2470.063,2020-4-05T09:53:52Z
2020-04-05T07:56:17Z,42.805,6.029,13.2988,4.59992,2470.053,2020-4-05T09:56:55Z
2020-04-05T07:59:20Z,42.805,6.029,13.2993,4.59989,2470.11,2020-4-05T09:59:59Z
2020-04-05T08:02:23Z,42.805,6.029,13.2983,4.59999,2470.04,2020-4-05T10:03:02Z
2020-04-05T08:05:26Z,42.805,6.029,13.2997,4.59988,2470.063,2020-4-05T10:06:05Z
2020-04-05T08:08:30Z,42.805,6.029,13.3004,4.59990,2470.077,2020-4-05T10:09:08Z
2020-04-05T08:11:33Z,42.805,6.029,13.3013,4.59984,2470.063,2020-4-05T10:12:12Z
2020-04-05T08:14:36Z,42.805,6.029,13.3015,4.60032,2470.03,2020-4-05T10:15:15Z
2020-04-05T08:17:39Z,42.805,6.029,13.3017,4.59987,2470.077,2020-4-05T10:18:18Z
2020-04-05T08:20:43Z,42.805,6.029,13.3012,4.59989,2470.077,2020-4-05T10:21:21Z
2020-04-05T08:23:46Z,42.805,6.029,13.3036,4.59988,2470.053,2020-4-05T10:24:25Z
2020-04-05T08:26:49Z,42.805,6.029,13.3070,4.60008,2470.077,2020-4-05T10:27:28Z
2020-04-05T08:29:52Z,42.805,6.029,13.3026,4.59984,2470.087,2020-4-05T10:30:31Z
2020-04-05T08:32:56Z,42.805,6.029,13.3010,4.59995,2470.03,2020-4-05T10:33:34Z
2020-04-05T08:35:59Z,42.805,6.029,13.3026,4.59997,2470.077,2020-4-05T10:36:38Z
2020-04-05T08:39:02Z,42.805,6.029,13.3046,4.60006,2470.04,2020-4-05T10:39:41Z
2020-04-05T08:42:05Z,42.805,6.029,13.2995,4.59991,2470.063,2020-4-05T10:42:44Z
2020-04-05T08:45:09Z,42.805,6.029,13.3023,4.60000,2470.007,2020-4-05T10:45:47Z
2020-04-05T08:48:12Z,42.805,6.029,13.3004,4.59995,2470.03,2020-4-05T10:48:51Z
2020-04-05T08:51:15Z,42.805,6.029,13.3003,4.59985,2470.04,2020-4-05T10:51:54Z
2020-04-05T08:54:18Z,42.805,6.029,13.2969,4.59996,2470.053,2020-4-05T10:54:57Z
2020-04-05T08:57:22Z,42.805,6.029,13.2996,4.59989,2470.017,2020-4-05T10:58:00Z
2020-04-05T09:00:25Z,42.805,6.029,13.2972,4.60016,2470.03,2020-4-05T11:01:04Z
2020-04-05T09:03:28Z,42.805,6.029,13.2987,4.60004,2469.993,2020-4-05T11:04:07Z
2020-04-05T09:06:31Z,42.805,6.029,13.3000,4.60001,2470.03,2020-4-05T11:07:10Z
2020-04-05T09:09:35Z,42.805,6.029,13.3000,4.60001,2469.993,2020-4-05T11:10:13Z
2020-04-05T09:12:38Z,42.805,6.029,13.3000,4.60040,2469.993,2020-4-05T11:13:17Z
2020-04-05T09:15:41Z,42.805,6.029,13.3005,4.60003,2470.017,2020-4-05T11:16:20Z
2020-04-05T09:18:44Z,42.805,6.029,13.3013,4.60007,2470.04,2020-4-05T11:19:23Z
2020-04-05T09:21:48Z,42.805,6.029,13.3022,4.60002,2470.03,2020-4-05T11:22:26Z
2020-04-05T09:24:51Z,42.805,6.029,13.3024,4.60009,2469.993,2020-4-05T11:25:30Z
2020-04-05T09:27:54Z,42.805,6.029,13.3014,4.60023,2469.993,2020-4-05T11:28:33Z
2020-04-05T09:30:57Z,42.805,6.029,13.3003,4.60034,2469.993,2020-4-05T11:31:36Z
2020-04-05T09:34:01Z,42.805,6.029,13.3003,4.60027,2469.984,2020-4-05T11:34:39Z
2020-04-05T09:37:04Z,42.805,6.029,13.3004,4.60074,2469.984,2020-4-05T11:37:43Z
2020-04-05T09:40:07Z,42.805,6.029,13.2993,4.60062,2469.993,2020-4-05T11:40:46Z
2020-04-05T09:43:10Z,42.805,6.029,13.3001,4.60072,2469.97,2020-4-05T11:43:49Z
2020-04-05T09:46:14Z,42.805,6.029,13.3002,4.60061,2469.97,2020-4-05T11:46:53Z
2020-04-05T09:49:17Z,42.805,6.029,13.3041,4.60046,2469.993,2020-4-05T11:49:56Z
2020-04-05T09:52:20Z,42.805,6.029,13.3019,4.60064,2470.03,2020-4-05T11:52:59Z
2020-04-05T09:55:23Z,42.805,6.029,13.3036,4.60043,2469.984,2020-4-05T11:56:02Z
2020-04-05T09:58:27Z,42.805,6.029,13.3011,4.60031,2469.956,2020-4-05T11:59:05Z
2020-04-05T10:01:30Z,42.805,6.029,13.3000,4.60061,2470.007,2020-4-05T12:02:09Z
2020-04-05T10:04:33Z,42.805,6.029,13.3036,4.60054,2469.984,2020-4-05T12:05:12Z
2020-04-05T10:07:37Z,42.805,6.029,13.3013,4.60084,2469.97,2020-4-05T12:08:15Z
2020-04-05T10:10:40Z,42.805,6.029,13.3036,4.60072,2469.97,2020-4-05T12:11:19Z
2020-04-05T10:13:43Z,42.805,6.029,13.2993,4.60060,2469.947,2020-4-05T12:14:22Z
2020-04-05T10:16:46Z,42.805,6.029,13.3004,4.60087,2469.914,2020-4-05T12:17:25Z
2020-04-05T10:19:49Z,42.805,6.029,13.3021,4.60068,2469.96,2020-4-05T12:20:28Z
2020-04-05T10:22:53Z,42.805,6.029,13.3016,4.60088,2469.97,2020-4-05T12:23:32Z
2020-04-05T10:25:56Z,42.805,6.029,13.3009,4.60057,2469.984,2020-4-05T12:26:35Z
2020-04-05T10:28:59Z,42.805,6.029,13.3029,4.60055,2469.97,2020-4-05T12:29:38Z
2020-04-05T10:32:03Z,42.805,6.029,13.2993,4.60063,2469.956,2020-4-05T12:32:41Z
2020-04-05T10:35:06Z,42.805,6.029,13.2996,4.60070,2469.97,2020-4-05T12:35:45Z
2020-04-05T10:38:09Z,42.805,6.029,13.3005,4.60046,2469.947,2020-4-05T12:38:48Z
2020-04-05T10:41:12Z,42.805,6.029,13.2997,4.60074,2469.923,2020-4-05T12:41:51Z
2020-04-05T10:44:15Z,42.805,6.029,13.3002,4.60061,2469.933,2020-4-05T12:44:54Z
2020-04-05T10:47:19Z,42.805,6.029,13.3003,4.60058,2469.923,2020-4-05T12:47:57Z
2020-04-05T10:50:22Z,42.805,6.029,13.3019,4.60066,2469.923,2020-4-05T12:51:01Z
2020-04-05T10:53:25Z,42.805,6.029,13.2992,4.60066,2469.947,2020-4-05T12:54:04Z
2020-04-05T10:56:28Z,42.805,6.029,13.3000,4.60078,2469.96,2020-4-05T12:57:07Z
2020-04-05T10:59:32Z,42.805,6.029,13.2991,4.60048,2469.937,2020-4-05T13:00:10Z
2020-04-05T11:02:35Z,42.805,6.029,13.2998,4.60044,2469.947,2020-4-05T13:03:14Z
2020-04-05T11:05:38Z,42.805,6.029,13.3006,4.60025,2469.937,2020-4-05T13:06:17Z
2020-04-05T11:08:41Z,42.805,6.029,13.2997,4.60067,2469.947,2020-4-05T13:09:20Z
2020-04-05T11:11:45Z,42.805,6.029,13.2992,4.60063,2469.937,2020-4-05T13:12:24Z
2020-04-05T11:14:48Z,42.805,6.029,13.2986,4.60069,2469.923,2020-4-05T13:15:27Z
2020-04-05T11:17:51Z,42.805,6.029,13.2998,4.60034,2469.96,2020-4-05T13:18:30Z
2020-04-05T11:20:55Z,42.805,6.029,13.2999,4.60036,2469.96,2020-4-05T13:21:33Z
2020-04-05T11:23:58Z,42.805,6.029,13.2991,4.60059,2469.923,2020-4-05T13:24:37Z
2020-04-05T11:27:01Z,42.805,6.029,13.2994,4.60055,2469.937,2020-4-05T13:27:40Z
2020-04-05T11:30:04Z,42.805,6.029,13.2993,4.60092,2469.9,2020-4-05T13:30:43Z
2020-04-05T11:33:07Z,42.805,6.029,13.3002,4.60044,2469.937,2020-4-05T13:33:46Z
2020-04-05T11:36:11Z,42.805,6.029,13.2993,4.60060,2469.9,2020-4-05T13:36:49Z
2020-04-05T11:39:14Z,42.805,6.029,13.2982,4.60069,2469.914,2020-4-05T13:39:53Z
2020-04-05T11:42:17Z,42.805,6.029,13.2985,4.60069,2469.914,2020-4-05T13:42:56Z
2020-04-05T11:45:20Z,42.805,6.029,13.2985,4.60046,2469.914,2020-4-05T13:45:59Z
2020-04-05T11:48:24Z,42.805,6.029,13.2993,4.60060,2469.923,2020-4-05T13:49:03Z
2020-04-05T11:51:27Z,42.805,6.029,13.2998,4.60055,2469.876,2020-4-05T13:52:06Z
2020-04-05T11:54:30Z,42.805,6.029,13.2999,4.60060,2469.914,2020-4-05T13:55:09Z
2020-04-05T11:57:33Z,42.805,6.029,13.2984,4.60024,2469.96,2020-4-05T13:58:12Z
2020-04-05T12:00:37Z,42.805,6.029,13.3005,4.60055,2469.89,2020-4-05T14:01:15Z
2020-04-05T12:03:40Z,42.805,6.029,13.2997,4.60032,2469.9,2020-4-05T14:04:19Z
2020-04-05T12:06:43Z,42.805,6.029,13.3008,4.60029,2469.9,2020-4-05T14:07:22Z
2020-04-05T12:09:46Z,42.805,6.029,13.2999,4.60032,2469.923,2020-4-05T14:10:25Z
2020-04-05T12:12:50Z,42.805,6.029,13.2997,4.60031,2469.923,2020-4-05T14:13:28Z
2020-04-05T12:15:53Z,42.805,6.029,13.3001,4.60067,2469.914,2020-4-05T14:16:32Z
2020-04-05T12:18:56Z,42.805,6.029,13.3002,4.60026,2469.89,2020-4-05T14:19:35Z
2020-04-05T12:21:59Z,42.805,6.029,13.2991,4.60032,2469.914,2020-4-05T14:22:38Z
2020-04-05T12:25:03Z,42.805,6.029,13.3003,4.60049,2469.9,2020-4-05T14:25:41Z
2020-04-05T12:28:06Z,42.805,6.029,13.2996,4.60030,2469.89,2020-4-05T14:28:45Z
2020-04-05T12:31:09Z,42.805,6.029,13.3001,4.60044,2469.937,2020-4-05T14:31:48Z
2020-04-05T12:34:12Z,42.805,6.029,13.2986,4.60021,2469.914,2020-4-05T14:34:51Z
2020-04-05T12:37:15Z,42.805,6.029,13.2994,4.60044,2469.937,2020-4-05T14:37:54Z
2020-04-05T12:40:19Z,42.805,6.029,13.2986,4.60035,2469.9,2020-4-05T14:40:58Z
2020-04-05T12:43:22Z,42.805,6.029,13.2977,4.60011,2469.886,2020-4-05T14:44:01Z
2020-04-05T12:46:25Z,42.805,6.029,13.2992,4.60049,2469.886,2020-4-05T14:47:04Z
2020-04-05T12:49:28Z,42.805,6.029,13.2985,4.60050,2469.914,2020-4-05T14:50:07Z
2020-04-05T12:52:32Z,42.805,6.029,13.2990,4.60039,2469.923,2020-4-05T14:53:11Z
2020-04-05T12:55:35Z,42.805,6.029,13.2998,4.60033,2469.96,2020-4-05T14:56:14Z
2020-04-05T12:58:38Z,42.805,6.029,13.2984,4.60039,2469.853,2020-4-05T14:59:17Z
2020-04-05T13:01:41Z,42.805,6.029,13.2983,4.60026,2469.9,2020-4-05T15:02:20Z
2020-04-05T13:04:45Z,42.805,6.029,13.2990,4.60037,2469.9,2020-4-05T15:05:24Z
2020-04-05T13:07:48Z,42.805,6.029,13.2983,4.60031,2469.923,2020-4-05T15:08:27Z
2020-04-05T13:10:51Z,42.805,6.029,13.2988,4.60032,2469.923,2020-4-05T15:11:30Z
2020-04-05T13:13:54Z,42.805,6.029,13.2993,4.60033,2469.923,2020-4-05T15:14:33Z
2020-04-05T13:16:58Z,42.805,6.029,13.2992,4.60019,2469.9,2020-4-05T15:17:36Z
2020-04-05T13:20:01Z,42.805,6.029,13.2983,4.60029,2469.914,2020-4-05T15:20:40Z
2020-04-05T13:23:04Z,42.805,6.029,13.2988,4.60036,2469.9,2020-4-05T15:23:43Z
2020-04-05T13:26:07Z,42.805,6.029,13.2999,4.60039,2469.909,2020-4-05T15:26:46Z
2020-04-05T13:29:11Z,42.805,6.029,13.2987,4.60033,2469.937,2020-4-05T15:29:49Z
2020-04-05T13:32:14Z,42.805,6.029,13.2986,4.60037,2469.947,2020-4-05T15:32:53Z
2020-04-05T13:35:17Z,42.805,6.029,13.2992,4.60010,2469.914,2020-4-05T15:35:56Z
2020-04-05T13:38:20Z,42.805,6.029,13.2986,4.60027,2469.937,2020-4-05T15:38:59Z
2020-04-05T13:41:24Z,42.805,6.029,13.2985,4.60013,2469.96,2020-4-05T15:42:02Z
2020-04-05T13:44:27Z,42.805,6.029,13.2986,4.59999,2469.947,2020-4-05T15:45:06Z
2020-04-05T13:47:30Z,42.805,6.029,13.2997,4.60028,2469.923,2020-4-05T15:48:09Z
2020-04-05T13:50:33Z,42.805,6.029,13.2993,4.60032,2469.923,2020-4-05T15:51:12Z
2020-04-05T13:53:36Z,42.805,6.029,13.3006,4.60033,2469.947,2020-4-05T15:54:15Z
2020-04-05T13:56:40Z,42.805,6.029,13.2994,4.60031,2469.9,2020-4-05T15:57:19Z
2020-04-05T13:59:43Z,42.805,6.029,13.2986,4.60024,2469.923,2020-4-05T16:00:22Z
2020-04-05T14:02:46Z,42.805,6.029,13.2983,4.60008,2469.947,2020-4-05T16:03:25Z
2020-04-05T14:05:49Z,42.805,6.029,13.2986,4.60002,2469.96,2020-4-05T16:06:28Z
2020-04-05T14:08:53Z,42.805,6.029,13.2974,4.60004,2469.96,2020-4-05T16:09:32Z
2020-04-05T14:11:56Z,42.805,6.029,13.2990,4.60002,2469.96,2020-4-05T16:12:35Z
2020-04-05T14:14:59Z,42.805,6.029,13.2978,4.60003,2469.947,2020-4-05T16:15:38Z
2020-04-05T14:18:02Z,42.805,6.029,13.2985,4.60003,2469.947,2020-4-05T16:18:41Z
2020-04-05T14:21:06Z,42.805,6.029,13.2979,4.60011,2469.984,2020-4-05T16:21:44Z
2020-04-05T14:24:09Z,42.805,6.029,13.2983,4.59995,2469.96,2020-4-05T16:24:48Z
2020-04-05T14:27:12Z,42.805,6.029,13.2990,4.60003,2469.97,2020-4-05T16:27:51Z
2020-04-05T14:30:15Z,42.805,6.029,13.2992,4.60036,2469.947,2020-4-05T16:30:54Z
2020-04-05T14:33:19Z,42.805,6.029,13.2980,4.60016,2469.984,2020-4-05T16:33:57Z
2020-04-05T14:36:22Z,42.805,6.029,13.2992,4.60036,2469.97,2020-4-05T16:37:01Z
2020-04-05T14:39:25Z,42.805,6.029,13.3003,4.60026,2469.947,2020-4-05T16:40:04Z
2020-04-05T14:42:28Z,42.805,6.029,13.2994,4.60008,2469.96,2020-4-05T16:43:07Z
2020-04-05T14:45:32Z,42.805,6.029,13.2982,4.60002,2469.97,2020-4-05T16:46:10Z
2020-04-05T14:48:35Z,42.805,6.029,13.2990,4.60024,2469.984,2020-4-05T16:49:14Z
2020-04-05T14:51:38Z,42.805,6.029,13.2991,4.60014,2470.007,2020-4-05T16:52:17Z
2020-04-05T14:54:41Z,42.805,6.029,13.2981,4.60005,2469.97,2020-4-05T16:55:20Z
2020-04-05T14:57:45Z,42.805,6.029,13.2983,4.60011,2469.947,2020-4-05T16:58:24Z
2020-04-05T15:00:48Z,42.805,6.029,13.2979,4.59996,2469.97,2020-4-05T17:01:27Z
2020-04-05T15:03:51Z,42.805,6.029,13.2990,4.60031,2469.97,2020-4-05T17:04:30Z
2020-04-05T15:06:54Z,42.805,6.029,13.2996,4.60035,2469.97,2020-4-05T17:07:33Z
2020-04-05T15:09:58Z,42.805,6.029,13.2987,4.60006,2469.97,2020-4-05T17:10:36Z
2020-04-05T15:13:01Z,42.805,6.029,13.2983,4.60002,2469.97,2020-4-05T17:13:40Z
2020-04-05T15:16:04Z,42.805,6.029,13.2991,4.60032,2469.993,2020-4-05T17:16:43Z